Home > Weather > Bratislava > Past weeks

Flag for Slovakia Past Weather in Bratislava, Slovakia — Yesterday and Last 2 Weeks

Now
77 °F

Passing clouds.


Feels Like: 79 °F
Forecast: 60 / 86 °F
Wind: 9 mph from Southeast

Location: Bratislava Ivanka

Current Time: Aug 26, 2016 at 12:27:01 PM

Latest Report: Aug 26, 2016 at 12:00 PM


Visibility: N/A

Pressure: 30.18 "Hg

Humidity: 47%

Dew Point: 55 °F

Location of BratislavaLocation

Past Weather in Bratislava — Graph

°F

Bratislava Temperature Yesterday

Maximum temperature yesterday: 81 °F (at 3:30 PM)
Minimum temperature yesterday: 59 °F (at 6:30 AM)
Average temperature yesterday: 70 °F

High & Low Weather Summary for the Past Weeks

 TemperatureHumidityPressure
High84 °F (Aug 14, 4:00 PM)100% (Aug 14, 1:00 AM)30.33 "Hg (Aug 14, 1:00 AM)
Low46 °F (Aug 12, 4:00 AM)33% (Aug 11, 4:30 PM)29.83 "Hg (Aug 18, 3:30 PM)
Average67 °F70%30.11 "Hg
* Reported Aug 11 11:00 AM — Aug 26 11:00 AM, Bratislava, Weather by CustomWeather, © 2016

Note: Actual official high and low records may vary slightly from our data, if they occured in-between our weather recording intervals... More about our weather records

Advertising

Bratislava Weather History for the Previous 24 Hours

Scroll right to see more
 ConditionsComfort  
Time TempWeatherWind HumidityBarometerVisibility
11:00 AM
Fri, Aug 26
75 °FSunny.8 mph50%30.21 "Hg10 mi
10:30 AM73 °FPassing clouds.7 mph57%30.21 "HgN/A
10:00 AM72 °FPassing clouds.7 mph57%30.21 "HgN/A
9:30 AM70 °FPassing clouds.7 mph60%30.21 "HgN/A
9:00 AM68 °FSunny.7 mph64%30.21 "Hg10 mi
8:30 AM66 °FPassing clouds.5 mph68%30.21 "HgN/A
8:00 AM64 °FSunny.3 mph78%30.21 "Hg10 mi
7:30 AM63 °FSunny.3 mph77%30.21 "Hg10 mi
7:00 AM61 °FClear.3 mph77%30.21 "Hg10 mi
6:30 AM59 °FClear.5 mph82%30.21 "Hg10 mi
6:00 AM59 °FClear.5 mph82%30.21 "Hg10 mi
5:30 AM61 °FClear.5 mph77%30.18 "Hg10 mi
5:00 AM61 °FClear.5 mph77%30.18 "Hg10 mi
4:30 AM59 °FClear.5 mph82%30.18 "Hg10 mi
4:00 AM61 °FClear.6 mph83%30.18 "Hg10 mi
3:30 AM61 °FClear.5 mph83%30.18 "Hg10 mi
3:00 AM61 °FClear.6 mph83%30.18 "Hg10 mi
2:30 AM59 °FClear.5 mph82%30.18 "Hg10 mi
2:00 AM59 °FClear.5 mph82%30.18 "Hg10 mi
1:30 AM59 °FClear.3 mph82%30.21 "Hg10 mi
1:00 AM59 °FClear.3 mph88%30.21 "Hg10 mi
12:30 AM61 °FClear.5 mph83%30.21 "Hg10 mi
12:00 AM61 °FClear.3 mph83%30.21 "Hg10 mi
11:30 PM
Thu, Aug 25
63 °FClear.5 mph77%30.18 "Hg10 mi
11:00 PM63 °FClear.3 mph83%30.18 "Hg10 mi
10:30 PM64 °FClear.3 mph78%30.18 "Hg10 mi
10:00 PM68 °FClear.2 mph64%30.18 "Hg10 mi
9:30 PM66 °FClear.2 mph68%30.18 "Hg10 mi
9:00 PM70 °FClear.3 mph60%30.18 "Hg10 mi
8:30 PM70 °FSunny.3 mph60%30.18 "Hg10 mi
8:00 PM72 °FSunny.6 mph57%30.18 "Hg10 mi
7:30 PM73 °FSunny.7 mph53%30.18 "Hg10 mi
7:00 PM77 °FSunny.8 mph47%30.15 "Hg10 mi
6:30 PM79 °FSunny.7 mph45%30.15 "Hg10 mi
6:00 PM79 °FSunny.7 mph42%30.15 "Hg10 mi
5:30 PM81 °FPassing clouds.7 mph42%30.18 "HgN/A
5:00 PM81 °FPassing clouds.8 mph42%30.18 "HgN/A
4:30 PM81 °FSunny.3 mph42%30.18 "Hg10 mi
4:00 PM81 °FSunny.3 mph42%30.18 "Hg10 mi
3:30 PM81 °FSunny.2 mph39%30.18 "Hg10 mi
3:00 PM79 °FSunny.5 mph45%30.18 "Hg10 mi
2:30 PM79 °FPassing clouds.6 mph45%30.18 "HgN/A
2:00 PM79 °FSunny.5 mph45%30.21 "Hg10 mi
1:30 PM79 °FPassing clouds.7 mph45%30.21 "HgN/A
1:00 PM77 °FSunny.6 mph47%30.21 "Hg10 mi
12:30 PM77 °FPassing clouds.2 mph47%30.21 "HgN/A
12:00 PM77 °FPassing clouds.2 mph47%30.21 "HgN/A
Weather by CustomWeather, © 2016

See weather overviewHow to use our weather pages